{"data":{"norad_id":41901,"intl_designator":"2016-081D","name":"SPARK 2","alt_names":[],"object_type":"PAYLOAD","status":"ACTIVE","operator":null,"country":"PRC","launch_date":"2016-12-21","launch_site_code":"JSC","launch_vehicle":null,"mission":null,"orbit_class":"UNKNOWN","rcs_meters":0.236,"size_class":null,"mass_kg":null,"dimensions":null,"purposes":[],"wikipedia_slug":null,"has_3d_model":false,"image_url":null,"decayed_at":null,"tle_current":{"epoch":"2026-09-19T16:37:28.861824Z","epoch_age_seconds":118157,"freshness":"FRESH","line1":"1 41901U 16081D   26262.69269516  .00000369  00000+0  88473-4 0  9994","line2":"2 41901  98.5585 255.3186 0026024  35.3288 324.9629 14.59247324517908","mean_motion":14.59247324,"eccentricity":0.0026024,"inclination_deg":98.5585,"raan_deg":255.3186,"arg_perigee_deg":35.3288,"mean_anomaly_deg":324.9629,"bstar":8.8473e-5,"rev_number":51790,"period_min":98.681010156165,"perigee_km":677.19664849477,"apogee_km":714.0140627072,"semimajor_km":7073.742355601,"source":"CELESTRAK","updated_at":"2026-09-20T09:00:14.167759Z"}}}